Location: Battersea Observatory
(44.4318°N, 76.3841°W)
Time: 12:51:56
(UTC-05:00)

Tiangong - Pass Details

Date: 11 December 2021
Orbit: 383 x 386 km, 41.5° (Epoch: 19 January)

Event Time Altitude Azimuth Distance (km) Brightness Sun altitude
Rises 16:56:40 0° 224° (SW) 2,271 6.6 -5.6°
Reaches altitude 10° 16:59:04 10° 207° (SSW) 1,416 4.8 -6.0°
Maximum altitude 17:01:31 20° 157° (SSE) 961 3.1 -6.4°
Drops below altitude 10° 17:03:58 10° 107° (ESE) 1,416 3.5 -6.8°
Enters shadow 17:05:00 - 97° (E) 1,764 3.9 -6.9°
